Regional Weather Roundup
Issued by NWS

Home | Current Version | Previous Version | Graphics & Text | Print | Product List | Glossary On
Versions: 1 2 3 4 5 6 7 8 9 10 11 12 13 14 15 16 17 18 19 20 21 22 23 24 25 26 27 28 29 30 31 32 33 34 35 36 37 38 39 40 41 42 43 44 45 46 47 48 49 50
000
ASUS45 KSLC 271810
RWRUT

UTAH REGIONAL WEATHER ROUNDUP
NATIONAL WEATHER SERVICE SALT LAKE CITY UT
1200 PM MDT MON JUL 27 2015

UTZ001>011-023>025-271900-

NORTHERN UTAH

CITY           SKY/WX    TMP DP  RH WIND       PRES   REMARKS
BRIGHAM CITY   CLOUDY    63  44  48 NW23G29   30.08R
HILL AFB       PTSUNNY   66  45  47 NW22G36   30.05R
LOGAN          NOT AVBL
OGDEN          CLOUDY    65  46  50 NW20G35   30.04R
PROVO AIRPORT  MOSUNNY   75  45  33 NW29G39   29.97R
SALT LAKE CITY PTSUNNY   71  43  36 NW24G35   30.02R
VERNAL         MOSUNNY   85  36  17 SW16G25   29.90F
WENDOVER       SUNNY     75  39  27 W17G30    30.02R
HEBER CITY     MOSUNNY   79  27  14 SW26G40   29.95R
WEST JORDAN    CLOUDY    70  43  37 NW28      30.05R

$$

UTZ012>022-026-027-271900-

SOUTHERN/CENTRAL UTAH

CITY           SKY/WX    TMP DP  RH WIND       PRES   REMARKS
BLANDING       SUNNY     82  37  19 S12G22    30.17S
BRYCE CANYON   SUNNY     74  31  20 W14G25    30.22R
CEDAR CITY     SUNNY     81  23  11 S15G33    30.07R
DELTA          SUNNY     77  35  21 N24G32    29.98R
HANKSVILLE     SUNNY     90  32  12 SW18G31   29.95S
MILFORD        SUNNY     86  28  12 SW22G32   30.00S
MOAB/CYNLANDS  SUNNY     91  34  13 SW22G32   29.92S
PRICE          SUNNY     85  23  10 SW14G23   29.98F
ST GEORGE      PTCLDY    90  34  13 W9        29.93S
KANAB          SUNNY     84  32  15 S9G20     30.10

$$

REGIONAL REPORTS     COLORADO/ARIZONA

CITY           SKY/WX    TMP DP  RH WIND       PRES   REMARKS
CRAIG, CO      MOSUNNY   86  44  23 S17G29    29.99F
GRAND JUNCTION MOSUNNY   85  43  22 SW10G23   29.94F
RIFLE          MOSUNNY   84  44  24 N5        29.98F
MONTROSE       MOSUNNY   87  39  18 SW15G23   30.06F
CORTEZ         SUNNY     84  41  21 S20       30.13S
PAGE, AZ       SUNNY     91  32  12 W8        29.97S
GRAND CANYON   SUNNY     79  36  21 SW15G31   30.20S
KINGMAN        SUNNY     91  27  10 SW17G28   29.98S
FLAGSTAFF      SUNNY     75  39  27 SW23      30.23F

$$

REGIONAL REPORTS    NEVADA/IDAHO/WYOMING

CITY           SKY/WX    TMP DP  RH WIND       PRES   REMARKS
LAS VEGAS, NV  SUNNY     92  36  14 S8        29.84S
ELY            SUNNY     71  31  22 NW16      30.13S
ELKO           MOSUNNY   69  37  30 W14G20    30.10R
POCATELLO, ID  LGT RAIN  50  48  93 S14G22    30.06R
BURLEY         CLOUDY    58  46  64 W21       30.04R
EVANSTON, WY   MOSUNNY   73  35  25 SW33G45   30.02R
ROCK SPRINGS   MOSUNNY   81  29  15 SW35G45   29.94F
KEMMERER       SUNNY     75  23  14 SW30G36   30.00S

$$



USA.gov is the U.S. government's official web portal to all federal, state and local government web resources and services.